| time (UTC) | temp F | wind direction | speed knots | gust knots | rain 1hr in | rain 24hr in | rain mn in | humidity % | barometer mb |
| 20260504050445 | 55 | 205 | 0.0 | 0.9 | 0.00 | 0.00 | 0.00 | 92 | 1020.5 |
| 20260504045414 | 55 | 205 | 0.0 | 0.9 | 0.00 | 0.00 | 0.00 | 92 | 1020.5 |
| 20260504044437 | 55 | 205 | 0.0 | 0.9 | 0.00 | 0.00 | 0.00 | 91 | 1020.6 |
| 20260504043432 | 55 | 205 | 0.0 | 0.0 | 0.00 | 0.00 | 0.00 | 91 | 1020.6 |
| 20260504042425 | 55 | 205 | 0.0 | 0.0 | 0.00 | 0.00 | 0.00 | 91 | 1020.6 |
| 20260504041420 | 56 | 205 | 0.0 | 0.0 | 0.00 | 0.00 | 0.00 | 90 | 1020.6 |
| 20260504040413 | 56 | 205 | 0.0 | 0.0 | 0.00 | 0.00 | 0.00 | 90 | 1020.7 |
| 20260504035427 | 56 | 205 | 0.0 | 0.0 | 0.00 | 0.00 | 0.00 | 89 | 1020.6 |
| 20260504034421 | 56 | 205 | 0.0 | 0.0 | 0.00 | 0.00 | 0.00 | 89 | 1020.5 |
| 20260504033415 | 56 | 205 | 0.0 | 0.0 | 0.00 | 0.00 | 0.00 | 88 | 1020.5 |
| 20260504032436 | 57 | 205 | 0.0 | 0.9 | 0.00 | 0.00 | 0.00 | 86 | 1020.5 |
| 20260504031448 | 57 | 205 | 0.9 | 0.9 | 0.00 | 0.00 | 0.00 | 86 | 1020.5 |
| 20260504030421 | 58 | 205 | 0.9 | 1.7 | 0.00 | 0.00 | 0.00 | 85 | 1020.5 |
| 20260504025413 | 58 | 205 | 0.0 | 0.0 | 0.00 | 0.00 | 0.00 | 85 | 1020.4 |
| 20260504024438 | 58 | 205 | 0.0 | 0.0 | 0.00 | 0.00 | 0.00 | 83 | 1020.4 |
| 20260504023426 | 59 | 205 | 0.0 | 0.0 | 0.00 | 0.00 | 0.00 | 83 | 1020.4 |
| 20260504022418 | 59 | 205 | 0.0 | 0.0 | 0.00 | 0.00 | 0.00 | 81 | 1020.4 |
| 20260504021412 | 60 | 205 | 0.0 | 0.0 | 0.00 | 0.00 | 0.00 | 80 | 1020.4 |
| 20260504020425 | 60 | 205 | 0.0 | 0.9 | 0.00 | 0.00 | 0.00 | 80 | 1020.3 |
| 20260504015420 | 61 | 205 | 0.9 | 1.7 | 0.00 | 0.00 | 0.00 | 79 | 1020.2 |
| 20260504014413 | 62 | 205 | 0.9 | 0.9 | 0.00 | 0.00 | 0.00 | 77 | 1020.2 |
| 20260504013438 | 62 | 205 | 0.0 | 0.0 | 0.00 | 0.00 | 0.00 | 75 | 1020.0 |
| 20260504012434 | 63 | 205 | 0.0 | 0.9 | 0.00 | 0.00 | 0.00 | 74 | 1019.9 |
| 20260504011425 | 64 | 205 | 0.0 | 0.9 | 0.00 | 0.00 | 0.00 | 72 | 1019.7 |
| 20260504010418 | 65 | 205 | 0.0 | 0.9 | 0.00 | 0.00 | 0.00 | 70 | 1019.7 |
| 20260504005411 | 66 | 205 | 0.0 | 1.7 | 0.00 | 0.00 | 0.00 | 67 | 1019.6 |
| 20260504004435 | 67 | 204 | 0.9 | 1.7 | 0.00 | 0.00 | 0.00 | 65 | 1019.5 |
| 20260504003429 | 67 | 205 | 0.0 | 1.7 | 0.00 | 0.00 | 0.00 | 63 | 1019.5 |
| 20260504002444 | 68 | 205 | 0.9 | 3.5 | 0.00 | 0.00 | 0.00 | 62 | 1019.4 |
| 20260504001417 | 69 | 204 | 1.7 | 5.2 | 0.00 | 0.00 | 0.00 | 60 | 1019.3 |
| 20260504000416 | 70 | 244 | 0.9 | 6.1 | 0.00 | 0.00 | 0.00 | 57 | 1019.3 |
| 20260503235433 | 71 | 208 | 0.9 | 5.2 | 0.00 | 0.00 | 0.00 | 55 | 1019.2 |
| 20260503234448 | 73 | 228 | 2.6 | 4.3 | 0.00 | 0.00 | 0.00 | 52 | 1019.3 |
| 20260503233423 | 74 | 262 | 0.0 | 3.5 | 0.00 | 0.00 | 0.00 | 44 | 1019.2 |
| 20260503232415 | 75 | 262 | 0.9 | 4.3 | 0.00 | 0.00 | 0.00 | 41 | 1019.2 |
| 20260503231458 | 75 | 340 | 1.7 | 4.3 | 0.00 | 0.00 | 0.00 | 41 | 1019.3 |
| 20260503230430 | 75 | 288 | 0.9 | 4.3 | 0.00 | 0.00 | 0.00 | 41 | 1019.3 |
| 20260503225422 | 75 | 336 | 1.7 | 5.2 | 0.00 | 0.00 | 0.00 | 40 | 1019.4 |
| 20260503224430 | 75 | 338 | 2.6 | 6.1 | 0.00 | 0.00 | 0.00 | 41 | 1019.3 |
| 20260503223421 | 75 | 341 | 0.0 | 4.3 | 0.00 | 0.00 | 0.00 | 40 | 1019.4 |
| 20260503222413 | 75 | 339 | 2.6 | 5.2 | 0.00 | 0.00 | 0.00 | 40 | 1019.3 |
| 20260503221435 | 76 | 290 | 2.6 | 6.1 | 0.00 | 0.00 | 0.00 | 40 | 1019.5 |
| 20260503220433 | 76 | 303 | 2.6 | 5.2 | 0.00 | 0.00 | 0.00 | 40 | 1019.4 |
| 20260503215425 | 76 | 334 | 2.6 | 7.8 | 0.00 | 0.00 | 0.00 | 37 | 1019.5 |
| 20260503214411 | 77 | 273 | 1.7 | 7.0 | 0.00 | 0.00 | 0.00 | 37 | 1019.5 |
| 20260503213425 | 77 | 330 | 1.7 | 5.2 | 0.00 | 0.00 | 0.00 | 38 | 1019.7 |
| 20260503212433 | 77 | 257 | 4.3 | 8.7 | 0.00 | 0.00 | 0.00 | 37 | 1019.7 |
| 20260503211435 | 77 | 203 | 2.6 | 7.8 | 0.00 | 0.00 | 0.00 | 37 | 1019.9 |
| 20260503210427 | 77 | 309 | 3.5 | 7.0 | 0.00 | 0.00 | 0.00 | 38 | 1019.9 |
| 20260503205417 | 76 | 28 | 2.6 | 9.6 | 0.00 | 0.00 | 0.00 | 39 | 1020.1 |
| 20260503204500 | 77 | 55 | 2.6 | 7.0 | 0.00 | 0.00 | 0.00 | 37 | 1020.1 |
| 20260503203429 | 77 | 327 | 1.7 | 8.7 | 0.00 | 0.00 | 0.00 | 40 | 1020.4 |
| 20260503202443 | 77 | 283 | 3.5 | 8.7 | 0.00 | 0.00 | 0.00 | 38 | 1020.5 |
| 20260503201415 | 77 | 290 | 3.5 | 9.6 | 0.00 | 0.00 | 0.00 | 38 | 1020.6 |
| 20260503200430 | 77 | 268 | 7.0 | 11.3 | 0.00 | 0.00 | 0.00 | 38 | 1020.7 |
| 20260503195422 | 76 | 331 | 3.5 | 7.8 | 0.00 | 0.00 | 0.00 | 38 | 1021.0 |
| 20260503194415 | 76 | 333 | 2.6 | 7.8 | 0.00 | 0.00 | 0.00 | 38 | 1021.1 |
| 20260503193411 | 76 | 337 | 2.6 | 5.2 | 0.00 | 0.00 | 0.00 | 38 | 1021.1 |
| 20260503192433 | 76 | 59 | 3.5 | 6.1 | 0.00 | 0.00 | 0.00 | 40 | 1021.2 |
| 20260503191444 | 76 | 47 | 2.6 | 4.3 | 0.00 | 0.00 | 0.00 | 39 | 1021.4 |
| 20260503190415 | 75 | 294 | 2.6 | 7.0 | 0.00 | 0.01 | 0.00 | 37 | 1021.6 |
| 20260503185432 | 75 | 46 | 3.5 | 9.6 | 0.00 | 0.01 | 0.00 | 37 | 1021.7 |
| 20260503184425 | 75 | 49 | 1.7 | 5.2 | 0.00 | 0.01 | 0.00 | 38 | 1021.8 |
| 20260503183418 | 75 | 76 | 3.5 | 10.4 | 0.00 | 0.01 | 0.00 | 38 | 1022.0 |
| 20260503182411 | 75 | 95 | 2.6 | 9.6 | 0.00 | 0.01 | 0.00 | 38 | 1022.3 |
| 20260503181425 | 75 | 238 | 1.7 | 7.0 | 0.00 | 0.01 | 0.00 | 38 | 1022.3 |
| 20260503180418 | 74 | 333 | 2.6 | 5.2 | 0.00 | 0.03 | 0.00 | 38 | 1022.6 |
| 20260503175412 | 74 | 336 | 2.6 | 7.0 | 0.00 | 0.03 | 0.00 | 43 | 1022.6 |
| 20260503174433 | 74 | 81 | 1.7 | 4.3 | 0.00 | 0.03 | 0.00 | 43 | 1022.7 |
| 20260503173425 | 74 | 333 | 2.6 | 6.1 | 0.00 | 0.03 | 0.00 | 41 | 1022.8 |
| 20260503172416 | 74 | 89 | 4.3 | 7.0 | 0.00 | 0.03 | 0.00 | 38 | 1023.0 |
| 20260503171447 | 73 | 83 | 2.6 | 8.7 | 0.00 | 0.03 | 0.00 | 40 | 1023.1 |
| 20260503170416 | 73 | 68 | 0.0 | 6.1 | 0.00 | 0.07 | 0.00 | 40 | 1023.0 |
| 20260503150439 | 71 | 321 | 1.7 | 6.1 | 0.00 | 0.17 | 0.00 | 46 | 1023.8 |
| 20260503130416 | 61 | 336 | 0.0 | 0.0 | 0.00 | 0.27 | 0.00 | 73 | 1022.8 |
| 20260503110432 | 45 | 336 | 0.9 | 3.5 | 0.00 | 0.38 | 0.00 | 98 | 1022.2 |
| 20260503090413 | 47 | 336 | 0.0 | 0.0 | 0.00 | 0.52 | 0.00 | 96 | 1021.2 |
| 20260503081454 | 47 | 336 | 0.0 | 0.0 | 0.00 | 0.52 | 0.00 | 95 | 1021.0 |
| 20260503080427 | 47 | 336 | 0.0 | 0.0 | 0.00 | 0.60 | 0.00 | 95 | 1021.0 |
| 20260503072414 | 48 | 336 | 0.0 | 0.0 | 0.00 | 0.60 | 0.00 | 93 | 1020.7 |
| 20260503071427 | 48 | 336 | 0.0 | 0.0 | 0.00 | 0.60 | 0.00 | 92 | 1020.7 |
| 20260503070421 | 49 | 336 | 0.0 | 0.0 | 0.00 | 0.68 | 0.00 | 92 | 1020.6 |
| 20260503054422 | 52 | 336 | 0.0 | 0.0 | 0.00 | 0.75 | 0.00 | 83 | 1020.7 |
| 20260503053414 | 52 | 336 | 0.0 | 0.0 | 0.00 | 0.75 | 0.00 | 83 | 1020.4 |
| 20260503052423 | 53 | 336 | 0.0 | 0.0 | 0.00 | 0.75 | 0.00 | 83 | 1020.5 |